Location: Unspecified
(0.0000°N, 0.0000°E)
Time: 10:34:06
(UTC+00:00)

Vanguard 1 Rocket - Pass Details

Date: 15 December 2017
Orbit: 656 x 4222 km, 34.3° (Epoch: 21 January)

Event Time Altitude Azimuth Distance (km) Brightness Sun altitude
Rises 13:01:44 0° 240° (WSW) 2,968 10.4 61.7°
Reaches altitude 10° 13:03:52 10° 243° (WSW) 2,071 9.8 61.4°
Maximum altitude 13:08:17 64° 325° (NW) 832 8.1 60.7°
Drops below altitude 10° 13:14:27 10° 47° (NE) 2,867 9.8 59.8°
Sets 13:17:56 0° 50° (NE) 4,254 10.5 59.2°
